EW3309 Weather Reports


time (UTC)temp
C
wind
direction
speed
KPH
gust
KPH
rain 1hr
cm
rain 24hr
cm
rain mn
cm
humidity
%
barometer
mb
20260507104546 11 342 0.0 0.0 0.00 0.00 0.00 91 1015.0
20260507103048 11 342 0.0 0.0 0.00 0.00 0.00 91 1015.0
20260507101545 11 342 0.0 0.0 0.00 0.00 0.00 90 1015.2
20260507100039 11 337 0.0 0.0 0.00 0.00 0.00 90 1015.2
20260507094552 11 334 0.0 0.0 0.00 0.00 0.00 90 1015.2
20260507093033 12 334 0.0 0.0 0.00 0.00 0.00 90 1015.3
20260507091533 12 334 0.0 0.0 0.00 0.00 0.00 90 1015.5
20260507090028 12 334 0.0 0.0 0.00 0.00 0.00 90 1015.7
20260507084528 12 334 0.0 0.0 0.00 0.00 0.00 90 1015.8
20260507083026 12 334 0.0 0.0 0.00 0.00 0.00 90 1016.0
20260507081526 12 334 0.0 0.0 0.00 0.00 0.00 88 1016.0
20260507080024 12 334 0.0 0.0 0.00 0.00 0.00 88 1016.1
20260507074522 12 334 0.0 0.0 0.00 0.00 0.00 87 1016.2
20260507073019 13 317 0.0 0.0 0.00 0.00 0.00 87 1016.1
20260507071519 13 296 0.0 0.0 0.00 0.00 0.00 86 1016.1
20260507070024 13 295 0.0 0.0 0.00 0.00 0.00 86 1016.3
20260507064515 13 295 0.0 0.0 0.00 0.00 0.00 87 1016.4
20260507063012 13 295 0.0 0.0 0.00 0.00 0.00 86 1016.5
20260507061512 14 295 0.0 0.0 0.00 0.00 0.00 85 1016.5
20260507060015 14 295 0.0 0.0 0.00 0.00 0.00 84 1016.4
20260507054511 15 295 0.0 0.0 0.00 0.00 0.00 82 1016.4
20260507053010 15 295 0.0 0.0 0.00 0.00 0.00 82 1016.4
20260507051513 15 295 0.0 0.0 0.00 0.00 0.00 81 1016.4
20260507050020 15 295 0.0 0.0 0.00 0.00 0.00 81 1016.3
20260507044509 15 295 0.0 0.0 0.00 0.00 0.00 81 1016.3
20260507043007 16 295 0.0 0.0 0.00 0.00 0.00 80 1016.1
20260507041506 16 292 0.0 0.0 0.00 0.00 0.00 79 1016.1
20260507040006 16 5 0.0 0.0 0.00 0.00 0.00 77 1015.9
20260507034505 16 322 0.0 0.0 0.00 0.00 0.00 75 1015.8
20260507033005 17 313 0.0 0.0 0.00 0.00 0.00 74 1015.6
20260507031504 17 311 0.0 0.0 0.00 0.00 0.00 73 1015.5
20260507030005 17 308 0.0 0.0 0.00 0.00 0.00 72 1015.3
20260507024507 17 317 0.0 0.0 0.00 0.00 0.00 70 1015.2
20260507023004 18 305 0.0 0.0 0.00 0.00 0.00 67 1015.2
20260507021503 19 283 0.0 0.0 0.00 0.00 0.00 64 1015.1
20260507020003 20 311 0.0 0.0 0.00 0.00 0.00 62 1015.0
20260507014503 20 329 0.0 0.0 0.00 0.00 0.00 60 1014.9
20260507013104 20 288 0.0 0.0 0.00 0.00 0.00 58 1014.9
20260507011600 21 290 0.0 0.0 0.00 0.00 0.00 58 1014.8
20260507010059 21 290 0.0 0.0 0.00 0.00 0.00 57 1014.8
20260507004558 21 296 0.0 0.0 0.00 0.00 0.00 55 1014.7
20260507003101 22 294 0.0 0.0 0.00 0.00 0.00 56 1014.6
20260507001559 21 283 0.0 0.0 0.00 0.00 0.00 55 1014.6
20260507000054 22 259 0.0 0.0 0.00 0.00 0.00 58 1014.6
20260506234603 22 281 0.0 0.0 0.00 0.00 0.00 57 1014.4
20260506233055 22 302 0.0 0.0 0.00 0.00 0.00 60 1014.4
20260506231554 22 339 0.0 0.0 0.00 0.00 0.00 60 1014.5
20260506230048 22 292 0.0 0.0 0.00 0.00 0.00 59 1014.6
20260506224547 22 302 0.0 0.0 0.00 0.00 0.00 59 1014.5
20260506223044 22 286 0.0 0.0 0.00 0.00 0.00 59 1014.7
20260506221542 22 292 0.0 0.0 0.00 0.00 0.00 59 1014.8
20260506220041 22 327 0.0 0.0 0.00 0.00 0.00 59 1014.9
20260506214544 22 286 0.0 0.0 0.00 0.00 0.00 58 1014.9
20260506213040 22 274 0.0 0.0 0.00 0.00 0.00 57 1015.1
20260506211538 23 304 0.0 0.0 0.00 0.00 0.00 56 1015.2
20260506210037 22 273 0.0 0.0 0.00 0.00 0.00 56 1015.1
20260506204537 22 280 0.0 0.0 0.00 0.00 0.00 57 1015.3
20260506203038 23 293 0.0 0.0 0.00 0.00 0.00 56 1015.3
20260506201537 23 254 0.0 0.0 0.00 0.00 0.00 54 1015.3
20260506200030 23 267 0.0 0.0 0.00 0.00 0.00 54 1015.4
20260506194526 23 219 0.0 0.0 0.00 0.00 0.00 54 1015.6
20260506193022 22 319 0.0 0.0 0.00 0.00 0.00 54 1015.7
20260506191522 22 263 0.0 0.0 0.00 0.00 0.00 53 1015.9
20260506190018 22 278 0.0 0.0 0.00 0.00 0.00 54 1016.1
20260506184516 22 294 0.0 0.0 0.00 0.00 0.00 54 1016.2
20260506183012 21 241 0.0 0.0 0.00 0.00 0.00 55 1016.4
20260506181508 21 198 0.0 0.0 0.00 0.00 0.00 58 1016.6
20260506180007 20 338 0.0 0.0 0.00 0.00 0.00 60 1016.8
20260506174502 20 317 0.0 0.0 0.00 0.15 0.00 61 1016.9
20260506173129 19 42 0.0 0.0 0.00 0.15 0.00 64 1017.1
20260506171601 18 355 0.0 0.0 0.00 0.15 0.00 67 1017.2
20260506170049 17 309 0.0 0.0 0.00 0.15 0.00 70 1017.2
20260506164554 16 288 0.0 0.0 0.00 0.15 0.00 74 1017.1
20260506163043 16 265 0.0 0.0 0.00 0.15 0.00 79 1017.3
20260506161538 15 140 0.0 0.0 0.00 0.15 0.00 86 1017.3
20260506160033 13 220 0.0 0.0 0.00 0.15 0.00 90 1017.3
20260506154530 12 184 0.0 0.0 0.00 0.15 0.00 92 1017.4
20260506153025 12 202 0.0 0.0 0.00 0.15 0.00 92 1017.4
20260506151527 11 252 0.0 0.0 0.00 0.15 0.00 93 1017.6
20260506150023 11 248 0.0 0.0 0.00 0.15 0.00 92 1017.6
20260506144519 11 243 0.0 0.0 0.00 0.28 0.00 92 1017.6
20260506143024 10 245 0.0 0.0 0.00 0.28 0.00 92 1017.5
20260506141517 10 252 0.0 0.0 0.00 0.28 0.00 92 1017.5
20260506140016 10 287 0.0 0.0 0.00 0.28 0.00 92 1017.5
20260506134513 10 286 0.0 0.0 0.00 0.28 0.00 91 1017.3
20260506133009 9 286 0.0 0.0 0.00 0.28 0.00 91 1017.2
20260506131507 9 286 0.0 0.0 0.00 0.28 0.00 91 1017.0
20260506130007 9 286 0.0 0.0 0.00 0.28 0.00 91 1016.9
20260506124505 9 286 0.0 0.0 0.00 0.36 0.00 90 1016.8
20260506123003 9 286 0.0 0.0 0.00 0.36 0.00 90 1016.7
20260506121502 9 286 0.0 0.0 0.00 0.36 0.00 90 1016.7
20260506120002 9 286 0.0 0.0 0.00 0.36 0.00 90 1016.6
20260506114500 10 286 0.0 0.0 0.00 0.36 0.00 90 1016.7
20260506113059 10 286 0.0 0.0 0.00 0.36 0.00 90 1016.6
20260506111558 10 286 0.0 0.0 0.00 0.36 0.00 89 1016.5